Regional Weather Roundup
Issued by NWS

Home | Current Version | Previous Version | Text Only | Print | Product List | Glossary On
Versions: 1 2 3 4 5 6 7 8 9 10 11 12 13 14 15 16 17 18 19 20 21 22 23 24 25 26 27 28 29 30 31 32 33 34 35 36 37 38 39 40 41 42 43 44 45 46 47 48 49 50
000
ASUS45 KPSR 251010
RWRAZ

ARIZONA REGIONAL HOURLY WEATHER ROUNDUP
NATIONAL WEATHER SERVICE PHOENIX AZ
300 AM MST SUN JAN 25 2015

NOTE: FAIR INDICATES FEW OR NO CLOUDS BELOW 12,000 FEET WITH NO
SIGNIFICANT WEATHER AND/OR OBSTRUCTIONS TO VISIBILITY.

AZZ001>003-036-251100-
NORTHWEST ARIZONA

CITY           SKY/WX    TMP DP  RH WIND       PRES   REMARKS
BULLHEAD CITY  CLEAR     64  30  27 N29G36    30.14F
KINGMAN        CLEAR     41  20  43 E8        30.24R
$$

AZZ004>008-015-016-018-251100-
NORTH CENTRAL ARIZONA

CITY           SKY/WX    TMP DP  RH WIND       PRES   REMARKS
GRAND CANYON   CLEAR     20  15  81 CALM      30.33R
PRESCOTT       CLEAR     29  15  56 S5        30.27R WCI  24
FLAGSTAFF      CLEAR     39  10  30 NE12G20   30.29S WCI  32
PAYSON         CLEAR     43  16  33 N12       30.24S
$$

AZZ009>014-017-251100-
NORTHEAST ARIZONA

CITY           SKY/WX    TMP DP  RH WIND       PRES   REMARKS
WINSLOW        PTCLDY    23  19  85 SE3       30.31R
SAINT JOHNS    CLEAR     26  19  74 CALM      30.29S
WINDOW ROCK    CLEAR     25  17  72 CALM      30.29S
SHOW LOW       CLEAR     21  16  79 E5        30.31S WCI  15
$$

AZZ023-251100-
GREATER PHOENIX AREA

CITY           SKY/WX    TMP DP  RH WIND       PRES   REMARKS
PHOENIX        CLEAR     56  20  24 NE3       30.07F
BUCKEYE          N/A     45  18  33 NW6       30.09S
LUKE AFB       NOT AVBL
DEER VALLEY    CLEAR     48  19  31 CALM      30.09S
SCOTTSDALE     CLEAR     50  21  32 CALM      30.10S
MESA-GATEWAY   CLEAR     41  23  48 NE3       30.10F
$$

AZZ027-028-251100-
SOUTHWEST MARICOPA COUNTY AND PINAL COUNTY

CITY           SKY/WX    TMP DP  RH WIND       PRES   REMARKS
CASA GRANDE    PTCLDY    55  14  19 NE6       30.09S
GILA BEND      FAIR      54  11  18 E3        30.06S
$$

AZZ503-504-507>509-251100-
SOUTHEAST ARIZONA

CITY           SKY/WX    TMP DP  RH WIND       PRES   REMARKS
TUCSON         MOCLDY    50  17  27 S3        30.12S
DAVIS-MONTHAN  MOCLDY    53   9  16 SE10      30.10R
NOGALES        CLOUDY    48  15  26 E5        30.15S
SIERRA VISTA   CLOUDY    46  13  26 E3        30.17F
DOUGLAS        CLOUDY    34  16  47 CALM      30.18F
SAFFORD        PTCLDY    41  17  38 SE12      30.19F
$$

AZZ020-021-025-026-031-251100-
SOUTHWEST ARIZONA

CITY           SKY/WX    TMP DP  RH WIND       PRES   REMARKS
YUMA           MOCLDY    56  24  29 CALM      30.05S
$$

CAZ031-033-041-043-047-048-061-251100-
SOUTHERN CALIFORNIA

CITY           SKY/WX    TMP DP  RH WIND       PRES   REMARKS
DOWNTOWN L.A.  CLEAR     54  36  50 CALM      30.03S
L.A. AIRPORT   CLEAR     60  32  34 CALM      30.03S
SAN DIEGO      PTCLDY    56  36  47 CALM      30.02R
BURBANK        CLEAR     55  24  30 N6        30.04S
ONTARIO        CLEAR     73  14  10 NE23G37   30.04S
RIVERSIDE      CLEAR     54  25  32 E3        30.08S
PALM SPRINGS   CLEAR     65  18  16 SW7       30.11F
EL CENTRO NAS  CLEAR     45  18  34 W8        30.07S
IMPERIAL       CLEAR     45  21  38 W6        30.06S
BLYTHE         CLEAR     54  22  28 CALM      30.09S
NEEDLES        CLEAR     63  25  23 N17       30.14S
$$

NVZ020-UTZ003-251100-
SOUTHERN NEVADA-UTAH

CITY           SKY/WX    TMP DP  RH WIND       PRES   REMARKS
LAS VEGAS      CLEAR     50  22  33 S5        30.22R
SALT LAKE CITY CLOUDY    34  30  85 NW3       30.47R
$$

NMZ009-TXZ055-251100-
NEW MEXICO-WEST TEXAS

CITY           SKY/WX    TMP DP  RH WIND       PRES   REMARKS
ALBUQUERQUE    PTCLDY    27  19  72 E3        30.27R
EL PASO        MOCLDY    33  26  75 CALM      30.21R
$$


........................KEY........................
SKY/WX - SKY CONDITION/WEATHER
TMP    - TEMPERATURE IN FAHRENHEIT
DP     - DEW POINT IN FAHRENHEIT
RH     - RELATIVE HUMIDITY IN PERCENT
WIND   - DIRECTION AND SPEED IN MILES PER HOUR (MPH)
VRB    - VARIABLE WIND DIRECTION
PRES   - MEAN SEA LEVEL PRESSURE IN INCHES OF MERCURY
         F - FALLING PRESSURE   R - RISING PRESSURE
         S - STEADY PRESSURE
VSB    - VISIBILITY IN MILES
HX     - HEAT INDEX IN FAHRENHEIT
WCI    - WIND CHILL INDEX IN FAHRENHEIT
TC     - TEMPERATURE IN CELSIUS WHICH IS ALSO KNOWN AS
         TEMPERATURE IN CENTIGRADE
AFB    - AIR FORCE BASE
         LUKE AFB IS LUKE AIR FORCE BASE
         DAVIS-MONTHAN IS DAVIS-MONTHAN AIR FORCE BASE
NAS    - NAVAL AIR STATION
         EL CENTRO NAS IS EL CENTRO NAVAL AIR STATION
N/A    - NOT AVAILABLE



USA.gov is the U.S. government's official web portal to all federal, state and local government web resources and services.